Lihue, HI

2:04 PM HST on October 20, 2017 (GMT -1000)
Lihue

Weather History for PHLI - May, 2014

Change the Weather History Date:

Monday, May 12, 2014

  Actual Average Record
Temperature  
Mean Temperature 73 °F 75 °F  
Max Temperature 78 °F 81 °F 86 °F (1981)
Min Temperature 68 °F 70 °F 62 °F (1954)
Degree Days  
Heating Degree Days 0 0  
Month to date heating degree days 0 0  
Since 1 July heating degree days 0 0  
Cooling Degree Days 8 10  
Month to date cooling degree days 130 120  
Year to date cooling degree days 1006 1024  
Growing Degree Days 23 (Base 50)    
Moisture  
Dew Point 63 °F    
Average Humidity 70    
Maximum Humidity 84    
Minimum Humidity 56    
Precipitation  
Precipitation 0.01 in 0.07 in 1.84 in (2002)
Month to date precipitation 0.40 0.93  
Year to date precipitation 13.38 14.70  
Snow  
Snow 0.00 in - - ()
Month to date snowfall 0.0  
Since 1 July snowfall 0.0  
Snow Depth 0.00 in    
Sea Level Pressure  
Sea Level Pressure 30.06 in    
Wind  
Wind Speed 14 mph (NNE)    
Max Wind Speed 20 mph    
Max Gust Speed 25 mph    
Visibility 10 miles    
Events Rain    
T = Trace of Precipitation, MM = Missing Value Source: NWS Daily Summary

Daily Weather History Graph

Daily Weather History Graph

Search for Another Location

Airport or City:

Trip Planner

Search our weather history database for the weather conditions in past years. The results will help you decide how hot, cold, wet, or windy it might be!

Date:

Astronomy

May. 12, 2014 Rise Set
Actual Time 5:59 AM HST 7:08 PM HST
Civil Twilight 5:35 AM HST 7:32 PM HST
Nautical Twilight 5:07 AM HST 8:00 PM HST
Astronomical Twilight 4:38 AM HST 8:29 PM HST
Moon 5:31 PM HST (5/12) 4:28 AM HST (5/12)
Length of Visible Light 13h 56m
Length of Day
13h 08m
Waxing Gibbous, 96% of the Moon is Illuminated
May 12
Waxing Gibbous
May 14
Full
May 21
Last Quarter
May 28
New
Jun 5
First Quarter

Hourly Weather History & Observations

Time (HST) Temp. Dew Point Humidity Pressure Visibility Wind Dir Wind Speed Gust Speed Precip Events Conditions
12:53 AM 72.0 °F 64.9 °F 78% 30.08 in 10.0 mi NNE 16.1 mph - 0.00 in   Overcast
1:53 AM 73.0 °F 64.0 °F 73% 30.06 in 10.0 mi NNE 17.3 mph - 0.00 in   Overcast
2:53 AM 71.1 °F 64.0 °F 78% 30.05 in 10.0 mi North 10.4 mph - N/A   Overcast
3:53 AM 71.6 °F 64.4 °F 78% 30.05 in 10.0 mi NNE 9.2 mph - N/A   Overcast
4:53 AM 69.1 °F 64.9 °F 87% 30.05 in 10.0 mi North 11.5 mph - 0.01 in Rain Light Rain
5:08 AM 69.8 °F 64.4 °F 83% 30.05 in 10.0 mi North 11.5 mph - 0.00 in Rain Light Rain
5:15 AM 69.8 °F 64.4 °F 83% 30.05 in 9.0 mi NNW 8.1 mph - 0.00 in Rain Light Rain
5:53 AM 69.1 °F 64.0 °F 84% 30.05 in 10.0 mi North 8.1 mph - 0.00 in   Overcast
6:35 AM 69.8 °F 64.4 °F 83% 30.07 in 10.0 mi North 8.1 mph - N/A   Overcast
6:53 AM 70.0 °F 64.0 °F 81% 30.07 in 10.0 mi North 11.5 mph - N/A   Overcast
7:53 AM 71.1 °F 64.9 °F 81% 30.09 in 10.0 mi NNE 17.3 mph 23.0 mph 0.00 in   Overcast
8:53 AM 71.1 °F 64.0 °F 78% 30.10 in 10.0 mi North 8.1 mph - N/A   Overcast
9:53 AM 71.1 °F 63.0 °F 75% 30.11 in 8.0 mi North 13.8 mph 18.4 mph 0.00 in Rain Light Rain
10:44 AM 73.4 °F 62.6 °F 69% 30.10 in 10.0 mi NNE 15.0 mph - 0.00 in   Overcast
10:53 AM 73.0 °F 62.1 °F 68% 30.10 in 10.0 mi NNE 16.1 mph - 0.00 in   Overcast
11:53 AM 75.0 °F 61.0 °F 62% 30.09 in 10.0 mi NNE 16.1 mph - N/A   Overcast
12:53 PM 73.9 °F 61.0 °F 64% 30.07 in 10.0 mi NNE 17.3 mph - N/A   Overcast
1:53 PM 77.0 °F 60.1 °F 56% 30.04 in 10.0 mi NNE 13.8 mph - N/A   Overcast
2:53 PM 75.0 °F 61.0 °F 62% 30.03 in 10.0 mi NE 15.0 mph - N/A   Overcast
3:53 PM 77.0 °F 60.1 °F 56% 30.01 in 10.0 mi NNE 12.7 mph - N/A   Overcast
4:53 PM 75.0 °F 61.0 °F 62% 30.00 in 10.0 mi NNE 16.1 mph - N/A   Overcast
5:53 PM 73.9 °F 63.0 °F 68% 30.00 in 10.0 mi NE 19.6 mph - N/A   Overcast
6:53 PM 73.0 °F 63.0 °F 71% 30.01 in 10.0 mi NE 19.6 mph - N/A   Overcast
7:53 PM 73.0 °F 62.1 °F 68% 30.03 in 10.0 mi NE 17.3 mph - N/A   Overcast
8:53 PM 73.0 °F 61.0 °F 66% 30.04 in 10.0 mi NNE 18.4 mph 24.2 mph N/A   Overcast
9:53 PM 72.0 °F 60.1 °F 66% 30.05 in 10.0 mi NNE 17.3 mph - N/A   Overcast
10:53 PM 72.0 °F 59.0 °F 64% 30.05 in 10.0 mi NE 17.3 mph - N/A   Mostly Cloudy
11:53 PM 71.1 °F 57.0 °F 61% 30.05 in 10.0 mi NNE 15.0 mph - N/A   Partly Cloudy